Kalamazoo, MI

6:49 PM EDT on March 29, 2017 (GMT -0400)
Kalamazoo-Battle Creek International

Weather History for KAZO - March, 2013

Change the Weather History Date:

Sunday, March 10, 2013

  Actual Average Record
Temperature  
Mean Temperature 50 °F 34 °F  
Max Temperature 59 °F 43 °F 66 °F (1977)
Min Temperature 41 °F 25 °F 6 °F (1972)
Degree Days  
Heating Degree Days 15 31  
Month to date heating degree days 344 327  
Since 1 July heating degree days 4894 5100  
Cooling Degree Days 0 0  
Month to date cooling degree days 0 0  
Year to date cooling degree days 0 0  
Moisture  
Dew Point 39 °F    
Average Humidity 73    
Maximum Humidity 89    
Minimum Humidity 57    
Precipitation  
Precipitation 0.11 in 0.07 in 0.73 in (2009)
Month to date precipitation 0.11 0.74  
Year to date precipitation 4.77 3.98  
Sea Level Pressure  
Sea Level Pressure 29.85 in    
Wind  
Wind Speed 9 mph (SSE)    
Max Wind Speed 20 mph    
Max Gust Speed 23 mph    
Visibility 8 miles    
Events Rain    
T = Trace of Precipitation, MM = Missing Value Source: NWS Daily Summary

Daily Weather History Graph

Daily Weather History Graph

Search for Another Location

Airport or City:

Trip Planner

Search our weather history database for the weather conditions in past years. The results will help you decide how hot, cold, wet, or windy it might be!

Date:

Astronomy

Mar. 10, 2013 Rise Set
Actual Time 8:02 AM EDT 7:43 PM EDT
Civil Twilight 7:34 AM EDT 8:11 PM EDT
Nautical Twilight 7:01 AM EDT 8:43 PM EDT
Astronomical Twilight 6:29 AM EDT 9:16 PM EDT
Moon 7:02 AM EDT (3/10) 6:50 PM EDT (3/10)
Length of Visible Light 12h 36m
Length of Day
11h 41m
Waning Crescent, 2% of the Moon is Illuminated
Mar 10
Waning Crescent
Mar 11
New
Mar 19
First Quarter
Mar 27
Full
Apr 3
Last Quarter

Hourly Weather History & Observations

Time (EDT) Temp. Windchill Dew Point Humidity Pressure Visibility Wind Dir Wind Speed Gust Speed Precip Events Conditions
12:53 AM 42.1 °F 37.1 °F 33.1 °F 70% 29.96 in 10.0 mi SSE 8.1 mph - N/A   Overcast
1:53 AM 44.1 °F 39.0 °F 33.1 °F 65% 29.95 in 10.0 mi South 9.2 mph - N/A   Overcast
3:53 AM 43.0 °F 38.8 °F 33.1 °F 68% 29.93 in 10.0 mi SSE 6.9 mph - N/A   Overcast
4:53 AM 43.0 °F 38.8 °F 33.1 °F 68% 29.91 in 10.0 mi SSE 6.9 mph - N/A   Overcast
5:53 AM 42.1 °F 38.4 °F 34.0 °F 73% 29.93 in 10.0 mi South 5.8 mph - 0.00 in Rain Light Rain
6:53 AM 42.1 °F 38.4 °F 37.0 °F 82% 29.92 in 4.0 mi South 5.8 mph - 0.03 in Rain Light Rain
7:53 AM 42.8 °F 39.3 °F 39.2 °F 87% 29.91 in 7.0 mi SSE 5.8 mph - N/A   Overcast
8:53 AM 42.1 °F 38.4 °F 39.0 °F 89% 29.92 in 7.0 mi SSE 5.8 mph - 0.00 in   Mostly Cloudy
9:53 AM 45.0 °F 41.2 °F 37.0 °F 74% 29.89 in 9.0 mi SSE 6.9 mph - N/A   Overcast
10:53 AM 46.9 °F - 37.0 °F 68% 29.89 in 9.0 mi SSE 10.4 mph - N/A   Partly Cloudy
11:53 AM 50.0 °F - 37.9 °F 63% 29.87 in 8.0 mi South 10.4 mph - N/A   Mostly Cloudy
12:53 PM 52.0 °F - 41.0 °F 66% 29.88 in 7.0 mi South 13.8 mph - 0.01 in   Partly Cloudy
1:10 PM 51.8 °F - 41.0 °F 67% 29.85 in 7.0 mi South 13.8 mph - N/A   Mostly Cloudy
1:53 PM 52.0 °F - 41.0 °F 66% 29.86 in 7.0 mi South 10.4 mph - N/A   Overcast
2:53 PM 55.9 °F - 44.1 °F 64% 29.87 in 7.0 mi South 9.2 mph - N/A   Mostly Cloudy
3:53 PM 57.9 °F - 43.0 °F 58% 29.81 in 7.0 mi SE 8.1 mph - N/A   Mostly Cloudy
4:38 PM 59.0 °F - 44.6 °F 59% 29.81 in 7.0 mi SSE 8.1 mph - N/A   Partly Cloudy
4:53 PM 57.9 °F - 43.0 °F 58% 29.81 in 7.0 mi SSE 8.1 mph - N/A   Clear
5:53 PM 57.0 °F - 43.0 °F 59% 29.81 in 7.0 mi SSE 8.1 mph - N/A   Scattered Clouds
6:53 PM 55.0 °F - 41.0 °F 59% 29.78 in 7.0 mi SE 8.1 mph - N/A   Partly Cloudy
7:53 PM 55.0 °F - 41.0 °F 59% 29.79 in 9.0 mi SSE 8.1 mph - N/A   Overcast
8:53 PM 54.0 °F - 41.0 °F 62% 29.79 in 7.0 mi SSE 9.2 mph 18.4 mph 0.00 in Rain Light Rain
9:53 PM 52.0 °F - 44.1 °F 74% 29.75 in 7.0 mi SSE 10.4 mph - 0.02 in Rain Light Rain
10:53 PM 54.0 °F - 41.0 °F 62% 29.74 in 10.0 mi SSE 11.5 mph 18.4 mph 0.00 in   Overcast
11:53 PM 53.1 °F - 39.9 °F 61% 29.73 in 10.0 mi SSE 9.2 mph 17.3 mph N/A   Overcast
12:53 AM 53.1 °F - 39.0 °F 59% 29.71 in 10.0 mi South 11.5 mph 18.4 mph N/A   Overcast